SCP
0 0 0 0 0 0 0 0 0 0 0 0 0 0 0 0 0 0 0 -0 -0 -0 0 0 0 -0 -0 -0 0 0 0 -0 0 0 0 -0 -0 -0 -0 -0 0 -0 -0 0
0 0 0 0 0 0 0 0 0 0 0 0 0 0 0 0 0 0 -0 0 -0 -0 -0 0 0 0 -0 -0 0 0 0 0 0 0 0 0 -0 -0 -0 -0 -0 -0 0 0
0 0 0 0 0 0 0 -0 0 0 0 0 0 -0 0 0 0 0 0 0 -0 -0 -0 0 0 0 0 -0 -0 0 0 0 0 0 0 0 0 0 -0 -0 -0 0 0 0
0 0 0 0 0 0 0 0 0 0 0 0 0 0 0 -0 -0 -0 0 0 0 -0 0 0 0 0 0 0 0 0 0 0 0 0 0 0 0 0 -0 -0 -0 0 0 0
0 0 0 0 0 0 0 0 0 0 0 0 0 0 0 -0 -0 -0 -0 -0 0 -0 -0 0 0 0 0 0 0 0 0 0 0 0 0 0 0 -0 -0 -0 -0 -0 -0 0
0 0 0 0 0 0 0 0 0 0 0 0 0 0 0 0 -0 -0 -0 -0 -0 0 -0 0 0 0 0 0 0 0 0 0 0 0 0 0 0 0 -0 -0 -0 -0 -0 -0
0 0 0 0 0 0 0 0 0 0 0 0 0 0 0 0 0 0 -0 -0 -0 0 -0 -0 0 0 -0 -0 0 0 0 0 0 0 0 0 0 -0 -0 -0 -0 -0 -0 -0
0 0 0 0 0 0 0 0 0 0 0 0 0 0 0 0 0 0 0 0 0 0 0 -0 -0 -0 -0 -0 0 0 0 0 0 0 0 0 0 -0 -0 -0 -0 -0 0 0
0 0 0 0 0 0 0 0 0 0 0 0 0 0 0 0 0 0 0 0 0 -0 0 -0 -0 -0 -0 -0 0 0 0 0 0 0 0 0 0 -0 -0 -0 -0 -0 0 0
0 0 0 0 0 0 0 0 0 0 0 0 0 0 0 0 0 0 0 0 0 0 0 0 0 0 0 -0 -0 0 0 0 0 0 0 0 0 0 0 -0 -0 -0 0 0
0 0 0 0 0 0 0 0 0 0 0 0 0 0 0 0 0 0 0 0 0 0 0 0 0 0 0 0 0 0 0 0 0 0 0 0 0 0 0 0 0 -0 0 -0
0 0 0 0 0 0 0 0 0 0 0 0 0 0 0 0 0 0 0 0 0 0 0 0 0 0 0 0 0 0 0 0 0 0 0 0 0 0 0 0 0 0 0 0
0 0 0 0 0 0 0 0 0 0 0 0 0 0 0 0 0 0 0 0 0 0 0 0 0 0 0 0 0 0 0 0 0 0 0 0 0 0 0 0 0 0 0 0
0 0 0 0 0 0 0 0 0 0 0 0 0 0 0 0 0 0 0 0 0 0 0 0 0 0 0 0 0 0 0 0 0 0 0 0 0 0 0 0 0 0 0 0
-0 0 0 0 0 0 0 0 0 0 0 0 0 0 0 0 0 0 0 0 0 0 0 0 0 0 0 0 0 0 0 0 0 0 0 0 0 0 0 0 0 0 0 0
0 0 0 0 0 0 0 0 0 0 0 0 0 0 0 0 0 0 0 0 0 0 0 0 0 0 0 0 0 0 0 0 0 0 0 0 0 0 0 0 0 0 0 0
0 0 0 0 0 0 0 0 0 0 0 0 0 0 0 0 0 0 0 0 0 0 0 0 0 0 0 0 0 0 0 0 0 0 0 0 0 1 1 0 0 0 0 0
0 0 0 0 0 0 0 0 0 0 0 0 0 0 0 0 0 0 0 0 0 0 0 0 0 0 0 0 0 0 0 0 0 0 0 1 1 0 1 1 0 0 0 0
0 0 0 0 0 0 0 0 0 0 0 0 0 0 0 0 0 0 0 0 0 0 0 0 0 0 0 0 0 0 0 0 0 0 0 0 1 1 1 1 1 1 0 0
0 0 0 0 0 0 0 0 0 0 0 0 0 0 0 0 0 0 0 0 0 0 0 0 0 0 0 0 0 0 0 0 0 0 0 0 0 1 1 1 1 2 1 1
0 0 0 0 0 0 0 0 0 0 0 0 0 0 0 0 0 0 0 0 0 0 0 0 0 0 0 0 0 0 0 0 0 0 0 0 0 0 0 0 1 2 2 2
0 0 0 0 0 0 0 0 0 0 0 0 0 0 0 0 0 0 0 0 0 0 0 0 0 0 0 -0 -0 0 0 0 0 0 0 0 0 0 0 0 0 1 2 2
0 0 0 0 0 0 0 0 0 0 0 0 0 0 0 0 -0 0 0 0 0 0 0 0 0 0 0 0 -0 0 0 0 0 0 0 0 0 0 0 0 0 2 2 2
0 0 0 0 0 0 0 0 0 0 0 0 0 0 0 0 0 -0 0 0 0 0 0 0 0 0 0 0 0 -0 -0 -0 0 0 0 0 0 0 0 1 1 1 2 2
0 0 0 0 0 0 0 0 0 0 0 0 0 0 0 0 0 0 0 0 0 0 0 0 0 0 0 0 0 0 -0 -0 -0 -0 0 0 0 0 0 0 1 1 2 2
0 0 0 0 0 0 0 0 0 0 0 0 0 0 0 0 0 0 0 0 0 0 0 0 0 0 0 0 0 0 0 -0 -0 -0 -0 0 -0 0 0 0 1 0 0 1
Wind_Speed_500mb
12 8 10 14 13 11 4 5 6 5 10 9 20 16 33 31 22 34 46 59 67 77 79 62 48 76 76 75 72 63 53 49 50 47 44 41 35 30 28 22 18 18 20 19
10 8 16 8 6 9 7 10 5 12 5 8 11 2 18 28 24 26 41 58 65 69 77 59 54 77 84 78 80 69 57 56 56 52 50 39 34 33 29 24 16 16 17 25
10 9 9 7 6 6 5 13 7 11 6 11 19 9 12 18 21 28 41 48 57 66 76 65 66 77 83 86 85 74 65 56 58 56 51 42 36 36 33 28 25 18 22 18
8 8 11 10 10 12 11 13 11 7 4 3 7 5 12 14 16 31 44 60 58 63 72 71 72 80 90 89 84 74 67 61 51 56 62 54 47 42 36 30 23 18 24 23
11 4 11 11 19 13 19 13 13 9 5 5 2 9 9 22 29 35 45 58 57 59 61 65 71 72 94 98 89 77 68 63 51 46 68 61 54 48 39 32 30 26 23 25
10 5 10 16 13 19 14 7 10 9 7 4 9 9 8 11 31 26 40 57 66 83 76 61 66 72 91 94 93 87 77 67 58 48 63 65 65 55 47 43 38 34 24 27
8 5 11 12 1 6 9 13 4 4 4 9 5 8 14 20 24 27 46 70 82 90 80 73 73 83 86 99 101 94 84 76 66 55 57 60 67 61 53 45 41 43 34 28
6 3 14 16 5 2 4 14 11 10 9 8 3 9 1 7 25 49 49 61 60 71 87 90 76 86 89 89 105 100 93 84 75 65 54 59 68 65 60 50 43 44 40 33
4 2 8 5 13 1 6 9 3 14 8 7 2 10 8 24 34 40 28 45 66 78 76 94 88 87 90 94 98 106 100 93 81 71 57 57 65 73 67 57 48 42 42 40
2 4 5 11 15 19 15 6 8 8 9 7 8 10 12 28 31 27 28 27 55 64 68 81 90 89 96 97 95 101 102 98 90 78 69 54 59 67 73 67 60 51 47 51
4 7 10 6 13 12 15 11 9 7 7 9 7 4 18 17 15 23 27 38 44 67 75 88 93 98 90 91 94 99 108 108 97 89 77 68 55 63 68 73 70 63 45 48
8 9 8 7 12 12 30 11 8 9 12 3 3 9 12 25 24 30 42 57 29 57 66 78 77 81 88 91 95 101 108 110 107 92 82 77 64 56 65 72 75 72 62 50
8 8 6 9 13 15 15 12 9 10 5 5 3 5 21 41 40 43 50 65 51 34 48 48 56 57 57 72 84 85 96 106 104 101 91 83 78 69 61 68 74 79 74 64
14 9 9 9 5 5 5 11 11 10 8 5 8 10 25 36 41 50 54 60 53 22 8 11 28 24 33 45 33 61 73 84 87 95 96 91 83 78 68 62 71 77 82 80
9 8 6 5 6 5 6 7 9 8 6 8 11 12 13 24 30 43 44 56 56 51 40 26 4 13 20 30 25 18 44 61 72 83 85 88 85 82 74 68 66 73 82 86
10 3 4 8 9 9 3 5 11 11 8 2 5 6 10 28 39 57 55 48 52 54 50 48 44 17 17 18 32 39 36 55 59 68 75 77 77 77 85 75 71 71 73 84
6 6 5 6 10 13 10 8 7 4 2 8 10 3 11 11 27 39 49 57 54 47 49 48 47 39 34 16 0 27 43 39 43 64 71 76 77 75 77 76 75 76 76 75
6 6 5 3 9 4 11 7 6 15 5 10 9 8 14 16 1 28 42 48 48 42 42 45 43 41 37 29 16 9 20 46 49 53 62 70 69 70 66 70 68 70 77 80
5 9 5 7 6 9 9 6 8 1 9 9 4 10 28 37 19 8 31 36 38 35 36 39 38 40 38 34 30 23 10 15 44 51 53 47 54 62 60 63 57 63 72 74
12 12 8 5 7 9 7 9 16 7 8 6 13 11 24 36 3 4 38 31 36 34 37 41 42 38 38 36 35 27 19 7 22 29 31 50 52 59 68 66 60 56 65 70
6 5 5 4 7 10 6 28 17 12 3 8 17 17 26 9 17 42 39 34 30 32 38 42 47 43 43 36 33 30 24 14 12 26 26 45 50 40 46 48 52 63 68 71
7 6 5 4 2 13 14 9 2 4 7 14 18 28 38 43 38 46 40 32 34 38 39 43 49 45 43 36 30 30 34 29 20 19 28 34 56 51 45 38 41 51 64 73
4 8 6 11 8 3 4 12 15 16 26 27 30 41 42 50 41 48 54 50 45 39 41 41 45 45 38 37 32 31 35 36 35 29 24 33 38 49 46 48 48 53 59 69
5 8 3 6 5 16 32 34 28 22 28 31 35 39 42 55 56 46 60 57 55 52 46 45 50 48 41 35 30 40 35 42 40 45 43 35 36 46 46 47 50 50 57 70
10 18 9 10 22 20 9 8 16 31 29 32 37 40 46 52 61 53 62 64 63 59 52 45 46 50 48 38 36 37 56 50 51 49 47 47 42 33 42 43 48 59 62 69
25 14 11 12 22 11 12 5 10 16 25 28 37 44 51 49 54 53 61 63 64 64 55 51 44 49 47 41 41 42 45 63 64 59 51 53 53 42 35 40 46 55 55 58
Wind_Direction_500mb
187 119 192 206 187 190 186 218 274 237 246 243 215 197 183 184 201 194 189 193 189 193 194 200 206 207 203 198 192 192 188 186 188 196 196 197 192 190 190 193 193 193 195 185
52 196 214 225 164 192 216 269 307 288 291 102 43 131 148 180 196 214 200 198 196 194 198 200 206 203 203 200 195 195 194 193 195 204 202 202 200 199 197 194 200 197 196 196
143 211 175 170 258 239 217 237 201 212 348 46 109 98 187 209 222 235 229 218 209 202 195 198 198 200 200 198 197 198 198 201 203 205 200 201 205 206 204 203 210 216 196 195
200 257 190 211 225 153 251 215 224 238 132 256 173 152 214 223 222 232 225 223 216 209 204 196 196 198 200 201 202 200 202 203 207 209 208 209 213 211 213 211 202 204 204 199
240 232 183 199 224 165 234 173 195 192 199 86 266 90 237 190 231 220 219 215 214 214 212 203 202 205 201 203 201 205 208 207 210 216 210 212 217 224 225 218 213 214 216 209
225 242 154 204 228 188 237 136 65 55 104 70 250 123 278 193 224 220 215 217 212 217 212 212 207 211 210 206 205 207 208 212 212 213 212 215 221 223 220 218 223 221 221 213
347 11 330 37 218 349 95 76 337 33 53 193 214 71 234 235 254 228 207 206 212 214 218 211 206 210 211 211 209 211 212 214 214 213 214 217 214 219 217 221 224 227 223 215
127 360 12 325 34 209 284 154 153 187 166 182 115 185 226 287 311 266 226 222 220 205 214 207 205 211 213 215 214 213 215 217 216 216 215 217 212 215 217 219 225 230 230 229
117 159 336 91 64 43 297 43 249 101 11 79 238 310 29 353 14 353 247 206 210 217 211 213 204 212 214 216 218 218 219 220 219 220 216 216 215 216 220 224 228 232 235 239
94 99 7 310 26 30 75 313 51 12 117 149 335 86 336 343 345 0 348 238 227 217 212 218 211 215 217 219 220 222 223 222 223 222 222 221 221 221 221 224 229 233 240 238
65 59 308 41 23 2 19 15 9 109 82 141 139 10 350 318 330 349 348 341 256 224 215 218 217 218 225 223 222 225 223 222 221 224 225 223 225 224 224 224 227 231 235 235
345 124 70 22 321 111 81 71 82 89 331 15 129 206 349 336 327 357 356 351 341 226 220 218 224 220 218 221 224 227 226 224 226 224 227 229 227 230 228 228 226 228 230 236
330 25 55 4 347 11 50 8 58 101 76 3 57 248 341 341 346 3 8 356 342 230 218 210 204 209 210 213 221 222 227 228 228 229 227 230 232 230 233 232 230 228 229 232
76 60 112 162 181 228 30 46 50 93 76 291 254 301 343 345 348 353 8 14 35 63 137 162 176 174 195 211 225 228 225 230 233 235 233 232 234 237 236 239 235 232 231 233
82 93 102 141 185 141 206 89 76 100 179 153 276 343 329 341 346 347 4 25 26 30 45 46 252 266 250 223 215 243 231 235 234 234 235 237 238 238 240 239 241 239 233 234
2 146 95 346 333 0 310 243 172 181 147 223 254 260 327 350 360 9 4 15 26 18 27 39 43 26 6 280 248 257 258 233 230 234 236 238 239 243 240 241 242 241 241 237
52 106 63 298 327 352 13 351 83 127 79 170 199 229 353 340 7 9 7 17 17 24 16 23 21 23 30 38 300 222 221 225 239 231 238 240 241 241 245 246 247 245 245 243
116 87 74 199 13 319 238 280 97 115 84 69 87 356 337 323 24 28 19 11 12 14 10 6 8 10 15 6 348 325 256 233 226 227 226 234 239 244 245 248 251 252 249 247
162 117 113 146 203 302 283 21 66 7 222 80 109 341 326 335 262 265 8 7 357 355 353 358 360 356 356 357 6 7 347 226 221 219 220 230 235 240 242 244 251 256 255 251
76 73 118 130 148 233 237 311 337 312 247 98 68 20 337 349 327 284 343 343 339 336 339 343 349 353 352 354 357 5 358 238 209 214 218 228 237 235 236 242 247 254 259 260
24 27 132 198 219 283 1 308 320 152 245 15 357 335 325 308 283 304 320 317 319 324 327 324 329 337 338 344 342 353 353 346 285 247 240 225 214 214 226 236 251 255 255 257
153 147 198 162 257 268 4 329 294 344 325 319 319 311 308 302 299 290 299 303 301 308 312 317 313 319 323 331 328 339 334 337 324 298 251 249 236 239 247 257 268 260 255 256
232 184 188 180 224 193 331 262 278 293 303 314 313 309 304 300 295 287 292 296 294 293 301 306 307 303 309 320 320 307 321 325 320 313 295 263 249 246 256 264 266 264 256 250
250 168 241 18 263 239 298 295 271 296 307 303 303 307 301 289 290 283 285 282 284 285 286 295 294 291 292 300 304 308 308 312 319 319 315 302 278 258 255 255 251 258 257 255
210 159 199 262 276 279 287 329 287 304 301 293 304 304 310 295 285 283 280 277 278 278 279 284 283 282 285 292 295 296 298 309 306 308 313 312 304 283 256 265 250 247 258 258
190 192 185 221 204 188 239 264 326 343 338 332 319 307 312 301 288 284 275 275 276 275 267 274 278 270 277 283 287 292 276 282 301 302 307 311 308 296 281 280 264 246 251 261
Wind_Speed_850mb
12 8 10 14 13 11 4 5 6 5 10 9 20 16 33 31 22 34 46 59 67 77 79 62 48 76 76 75 72 63 53 49 50 47 44 41 35 30 28 22 18 18 20 19
10 8 16 8 6 9 7 10 5 12 5 8 11 2 18 28 24 26 41 58 65 69 77 59 54 77 84 78 80 69 57 56 56 52 50 39 34 33 29 24 16 16 17 25
10 9 9 7 6 6 5 13 7 11 6 11 19 9 12 18 21 28 41 48 57 66 76 65 66 77 83 86 85 74 65 56 58 56 51 42 36 36 33 28 25 18 22 18
8 8 11 10 10 12 11 13 11 7 4 3 7 5 12 14 16 31 44 60 58 63 72 71 72 80 90 89 84 74 67 61 51 56 62 54 47 42 36 30 23 18 24 23
11 4 11 11 19 13 19 13 13 9 5 5 2 9 9 22 29 35 45 58 57 59 61 65 71 72 94 98 89 77 68 63 51 46 68 61 54 48 39 32 30 26 23 25
10 5 10 16 13 19 14 7 10 9 7 4 9 9 8 11 31 26 40 57 66 83 76 61 66 72 91 94 93 87 77 67 58 48 63 65 65 55 47 43 38 34 24 27
8 5 11 12 1 6 9 13 4 4 4 9 5 8 14 20 24 27 46 70 82 90 80 73 73 83 86 99 101 94 84 76 66 55 57 60 67 61 53 45 41 43 34 28
6 3 14 16 5 2 4 14 11 10 9 8 3 9 1 7 25 49 49 61 60 71 87 90 76 86 89 89 105 100 93 84 75 65 54 59 68 65 60 50 43 44 40 33
4 2 8 5 13 1 6 9 3 14 8 7 2 10 8 24 34 40 28 45 66 78 76 94 88 87 90 94 98 106 100 93 81 71 57 57 65 73 67 57 48 42 42 40
2 4 5 11 15 19 15 6 8 8 9 7 8 10 12 28 31 27 28 27 55 64 68 81 90 89 96 97 95 101 102 98 90 78 69 54 59 67 73 67 60 51 47 51
4 7 10 6 13 12 15 11 9 7 7 9 7 4 18 17 15 23 27 38 44 67 75 88 93 98 90 91 94 99 108 108 97 89 77 68 55 63 68 73 70 63 45 48
8 9 8 7 12 12 30 11 8 9 12 3 3 9 12 25 24 30 42 57 29 57 66 78 77 81 88 91 95 101 108 110 107 92 82 77 64 56 65 72 75 72 62 50
8 8 6 9 13 15 15 12 9 10 5 5 3 5 21 41 40 43 50 65 51 34 48 48 56 57 57 72 84 85 96 106 104 101 91 83 78 69 61 68 74 79 74 64
14 9 9 9 5 5 5 11 11 10 8 5 8 10 25 36 41 50 54 60 53 22 8 11 28 24 33 45 33 61 73 84 87 95 96 91 83 78 68 62 71 77 82 80
9 8 6 5 6 5 6 7 9 8 6 8 11 12 13 24 30 43 44 56 56 51 40 26 4 13 20 30 25 18 44 61 72 83 85 88 85 82 74 68 66 73 82 86
10 3 4 8 9 9 3 5 11 11 8 2 5 6 10 28 39 57 55 48 52 54 50 48 44 17 17 18 32 39 36 55 59 68 75 77 77 77 85 75 71 71 73 84
6 6 5 6 10 13 10 8 7 4 2 8 10 3 11 11 27 39 49 57 54 47 49 48 47 39 34 16 0 27 43 39 43 64 71 76 77 75 77 76 75 76 76 75
6 6 5 3 9 4 11 7 6 15 5 10 9 8 14 16 1 28 42 48 48 42 42 45 43 41 37 29 16 9 20 46 49 53 62 70 69 70 66 70 68 70 77 80
5 9 5 7 6 9 9 6 8 1 9 9 4 10 28 37 19 8 31 36 38 35 36 39 38 40 38 34 30 23 10 15 44 51 53 47 54 62 60 63 57 63 72 74
12 12 8 5 7 9 7 9 16 7 8 6 13 11 24 36 3 4 38 31 36 34 37 41 42 38 38 36 35 27 19 7 22 29 31 50 52 59 68 66 60 56 65 70
6 5 5 4 7 10 6 28 17 12 3 8 17 17 26 9 17 42 39 34 30 32 38 42 47 43 43 36 33 30 24 14 12 26 26 45 50 40 46 48 52 63 68 71
7 6 5 4 2 13 14 9 2 4 7 14 18 28 38 43 38 46 40 32 34 38 39 43 49 45 43 36 30 30 34 29 20 19 28 34 56 51 45 38 41 51 64 73
4 8 6 11 8 3 4 12 15 16 26 27 30 41 42 50 41 48 54 50 45 39 41 41 45 45 38 37 32 31 35 36 35 29 24 33 38 49 46 48 48 53 59 69
5 8 3 6 5 16 32 34 28 22 28 31 35 39 42 55 56 46 60 57 55 52 46 45 50 48 41 35 30 40 35 42 40 45 43 35 36 46 46 47 50 50 57 70
10 18 9 10 22 20 9 8 16 31 29 32 37 40 46 52 61 53 62 64 63 59 52 45 46 50 48 38 36 37 56 50 51 49 47 47 42 33 42 43 48 59 62 69
25 14 11 12 22 11 12 5 10 16 25 28 37 44 51 49 54 53 61 63 64 64 55 51 44 49 47 41 41 42 45 63 64 59 51 53 53 42 35 40 46 55 55 58
Wind_Direction_850mb
187 119 192 206 187 190 186 218 274 237 246 243 215 197 183 184 201 194 189 193 189 193 194 200 206 207 203 198 192 192 188 186 188 196 196 197 192 190 190 193 193 193 195 185
52 196 214 225 164 192 216 269 307 288 291 102 43 131 148 180 196 214 200 198 196 194 198 200 206 203 203 200 195 195 194 193 195 204 202 202 200 199 197 194 200 197 196 196
143 211 175 170 258 239 217 237 201 212 348 46 109 98 187 209 222 235 229 218 209 202 195 198 198 200 200 198 197 198 198 201 203 205 200 201 205 206 204 203 210 216 196 195
200 257 190 211 225 153 251 215 224 238 132 256 173 152 214 223 222 232 225 223 216 209 204 196 196 198 200 201 202 200 202 203 207 209 208 209 213 211 213 211 202 204 204 199
240 232 183 199 224 165 234 173 195 192 199 86 266 90 237 190 231 220 219 215 214 214 212 203 202 205 201 203 201 205 208 207 210 216 210 212 217 224 225 218 213 214 216 209
225 242 154 204 228 188 237 136 65 55 104 70 250 123 278 193 224 220 215 217 212 217 212 212 207 211 210 206 205 207 208 212 212 213 212 215 221 223 220 218 223 221 221 213
347 11 330 37 218 349 95 76 337 33 53 193 214 71 234 235 254 228 207 206 212 214 218 211 206 210 211 211 209 211 212 214 214 213 214 217 214 219 217 221 224 227 223 215
127 360 12 325 34 209 284 154 153 187 166 182 115 185 226 287 311 266 226 222 220 205 214 207 205 211 213 215 214 213 215 217 216 216 215 217 212 215 217 219 225 230 230 229
117 159 336 91 64 43 297 43 249 101 11 79 238 310 29 353 14 353 247 206 210 217 211 213 204 212 214 216 218 218 219 220 219 220 216 216 215 216 220 224 228 232 235 239
94 99 7 310 26 30 75 313 51 12 117 149 335 86 336 343 345 0 348 238 227 217 212 218 211 215 217 219 220 222 223 222 223 222 222 221 221 221 221 224 229 233 240 238
65 59 308 41 23 2 19 15 9 109 82 141 139 10 350 318 330 349 348 341 256 224 215 218 217 218 225 223 222 225 223 222 221 224 225 223 225 224 224 224 227 231 235 235
345 124 70 22 321 111 81 71 82 89 331 15 129 206 349 336 327 357 356 351 341 226 220 218 224 220 218 221 224 227 226 224 226 224 227 229 227 230 228 228 226 228 230 236
330 25 55 4 347 11 50 8 58 101 76 3 57 248 341 341 346 3 8 356 342 230 218 210 204 209 210 213 221 222 227 228 228 229 227 230 232 230 233 232 230 228 229 232
76 60 112 162 181 228 30 46 50 93 76 291 254 301 343 345 348 353 8 14 35 63 137 162 176 174 195 211 225 228 225 230 233 235 233 232 234 237 236 239 235 232 231 233
82 93 102 141 185 141 206 89 76 100 179 153 276 343 329 341 346 347 4 25 26 30 45 46 252 266 250 223 215 243 231 235 234 234 235 237 238 238 240 239 241 239 233 234
2 146 95 346 333 0 310 243 172 181 147 223 254 260 327 350 360 9 4 15 26 18 27 39 43 26 6 280 248 257 258 233 230 234 236 238 239 243 240 241 242 241 241 237
52 106 63 298 327 352 13 351 83 127 79 170 199 229 353 340 7 9 7 17 17 24 16 23 21 23 30 38 300 222 221 225 239 231 238 240 241 241 245 246 247 245 245 243
116 87 74 199 13 319 238 280 97 115 84 69 87 356 337 323 24 28 19 11 12 14 10 6 8 10 15 6 348 325 256 233 226 227 226 234 239 244 245 248 251 252 249 247
162 117 113 146 203 302 283 21 66 7 222 80 109 341 326 335 262 265 8 7 357 355 353 358 360 356 356 357 6 7 347 226 221 219 220 230 235 240 242 244 251 256 255 251
76 73 118 130 148 233 237 311 337 312 247 98 68 20 337 349 327 284 343 343 339 336 339 343 349 353 352 354 357 5 358 238 209 214 218 228 237 235 236 242 247 254 259 260
24 27 132 198 219 283 1 308 320 152 245 15 357 335 325 308 283 304 320 317 319 324 327 324 329 337 338 344 342 353 353 346 285 247 240 225 214 214 226 236 251 255 255 257
153 147 198 162 257 268 4 329 294 344 325 319 319 311 308 302 299 290 299 303 301 308 312 317 313 319 323 331 328 339 334 337 324 298 251 249 236 239 247 257 268 260 255 256
232 184 188 180 224 193 331 262 278 293 303 314 313 309 304 300 295 287 292 296 294 293 301 306 307 303 309 320 320 307 321 325 320 313 295 263 249 246 256 264 266 264 256 250
250 168 241 18 263 239 298 295 271 296 307 303 303 307 301 289 290 283 285 282 284 285 286 295 294 291 292 300 304 308 308 312 319 319 315 302 278 258 255 255 251 258 257 255
210 159 199 262 276 279 287 329 287 304 301 293 304 304 310 295 285 283 280 277 278 278 279 284 283 282 285 292 295 296 298 309 306 308 313 312 304 283 256 265 250 247 258 258
190 192 185 221 204 188 239 264 326 343 338 332 319 307 312 301 288 284 275 275 276 275 267 274 278 270 277 283 287 292 276 282 301 302 307 311 308 296 281 280 264 246 251 261